Regional Weather Roundup
Issued by NWS

Home | Current Version | Previous Version | Text Only | Print | Product List | Glossary On
Versions: 1 2 3 4 5 6 7 8 9 10 11 12 13 14 15 16 17 18 19 20 21 22 23 24 25 26 27 28 29 30 31 32 33 34 35 36 37 38 39 40 41 42 43 44 45 46 47 48 49 50
000
ASUS43 KLSX 200107
RWRMO

WEATHER SUMMARY FOR MISSOURI
NATIONAL WEATHER SERVICE SPRINGFIELD MO
800 PM CDT SUN APR 19 2015

NOTE: "FAIR" INDICATES FEW OR NO CLOUDS BELOW 12,000 FEET WITH NO
       SIGNIFICANT WEATHER AND/OR OBSTRUCTIONS TO VISIBILITY.
       CURRENT SKY AND/OR WEATHER CONDITIONS ARE NOT AVAILABLE FOR
       CHILLICOTHE AND FARMINGTON.

MOZ001>031-035>038-043-044-053-054-200200-
...NORTHERN AND WESTERN MISSOURI...

CITY           SKY/WX    TMP DP  RH WIND       PRES   REMARKS
KANSAS CTY INT CLOUDY    51  44  77 NW16G24   29.70R
KANSAS C DTWN  CLOUDY    53  45  74 NW16G24   29.69R
LEE`S SUMMIT   LGT RAIN  51  47  86 NW18G25   29.69R FOG
ST JOSEPH      CLOUDY    51  43  74 N24G31    29.70R
CHILLICOTHE      N/A     54  50  86 NW15G23   29.62R
KIRKSVILLE     LGT RAIN  54  52  93 W20G26    29.52R

$$
MOZ066>068-077>081-088>096-101>105-200200-
...SOUTHWEST MISSOURI...

CITY           SKY/WX    TMP DP  RH WIND       PRES   REMARKS
SPRINGFIELD    PTCLDY    61  50  67 W8        29.61R
JOPLIN         LGT RAIN  55  53  93 NW20G28   29.68R

$$
MOZ032>034-039>042-045>050-055>058-069>072-200200-
...CENTRAL MISSOURI...

CITY           SKY/WX    TMP DP  RH WIND       PRES   REMARKS
COLUMBIA       LGT RAIN  58  56  93 NW18G28   29.55R
JEFFERSON CITY LGT RAIN  62  54  74 W25G33    29.54R
ROLLA          PTCLDY    62  51  67 SW9       29.52R
SEDALIA        RAIN      55  32  41 NW21G30   29.62S
WHITEMAN AFB   RAIN      54  51  92 NW18G24   29.63S
WARRENSBURG    DRIZZLE   52  50  93 NW10G20   29.65F
OSAGE BEACH    MOCLDY    64  48  55 NW15G33   29.58R

$$
MOZ051-052-059>065-200200-
...EAST CENTRAL MISSOURI...

CITY           SKY/WX    TMP DP  RH WIND       PRES   REMARKS
ST LOUIS INTL  CLOUDY    61  56  83 SW5       29.50R
SPIRIT OF STL  CLOUDY    62  58  86 W8        29.49R
ST CHARLES     CLOUDY    60  57  89 SW6       29.48R

$$
MOZ072>076-082>087-097>100-106>115-200200-
...SOUTH CENTRAL AND SOUTHEAST MISSOURI...

CITY           SKY/WX    TMP DP  RH WIND       PRES   REMARKS
CAPE GIRARDEAU MOCLDY    65  62  90 SW6       29.52S
FARMINGTON     PTCLDY    64  54  68 NW5       29.56S
POPLAR BLUFF   CLEAR     63  58  83 CALM      29.51F
WEST PLAINS    CLOUDY    59  53  80 SW6       29.58F

$$


USA.gov is the U.S. government's official web portal to all federal, state and local government web resources and services.